Weather History for Clovis, NM

Change the Weather History Date:

Friday, October 5, 2012

  Actual Average Record
Temperature  
Mean Temperature 58 °F -  
Max Temperature 75 °F 76 °F 93 °F (1922)
Min Temperature 41 °F 49 °F 36 °F (1961)
Degree Days  
Heating Degree Days 7    
Growing Degree Days 8 (Base 50)    
Moisture  
Dew Point 41 °F    
Average Humidity 61    
Maximum Humidity 81    
Minimum Humidity 36    
Precipitation  
Precipitation 0.00 in - - ()
Sea Level Pressure  
Sea Level Pressure 30.16 in    
Wind  
Wind Speed 10 mph (ESE)    
Max Wind Speed 24 mph    
Max Gust Speed 30 mph    
Visibility 10 miles    
Events      
Averages and records for this station are not official NWS values.
T = Trace of Precipitation, MM = Missing Value Source: NWS Daily Summary

Daily Weather History Graph

Daily Weather History Graph

Search for Another Location

Airport:

Trip Planner

Search our weather history database for the weather conditions in past years. The results will help you decide how hot, cold, wet, or windy it might be!

Date:

Astronomy

Oct. 05, 2012 Rise Set
Actual Time 6:50 AM MDT 6:30 PM MDT
Civil Twilight 6:25 AM MDT 6:55 PM MDT
Nautical Twilight 5:56 AM MDT 7:24 PM MDT
Astronomical Twilight 5:26 AM MDT 7:53 PM MDT
Moon 10:07 PM MDT (10/5) 11:48 AM MDT (10/5)
Length of Visible Light 12h 30m
Length of Day
11h 39m
Waning Gibbous, 73% of the Moon is Illuminated
Oct 5
Waning Gibbous
Oct 8
Last Quarter
Oct 15
New
Oct 21
First Quarter
Oct 29
Full

Hourly Weather History & Observations

Time (MDT) Temp. Windchill Dew Point Humidity Pressure Visibility Wind Dir Wind Speed Gust Speed Precip Events Conditions
12:15 AM 46.4 °F 42.4 °F 37.4 °F 71% 30.23 in 10.0 mi East 8.1 mph - N/A   Clear
12:35 AM 46.4 °F 41.9 °F 37.4 °F 71% 30.22 in 10.0 mi East 9.2 mph - N/A   Clear
12:55 AM 46.4 °F 42.4 °F 37.4 °F 71% 30.22 in 10.0 mi East 8.1 mph - N/A   Clear
1:15 AM 44.6 °F 40.7 °F 37.4 °F 76% 30.22 in 10.0 mi East 6.9 mph - N/A   Clear
1:35 AM 44.6 °F 40.7 °F 37.4 °F 76% 30.22 in 10.0 mi East 6.9 mph - N/A   Clear
1:55 AM 44.6 °F 40.7 °F 37.4 °F 76% 30.22 in 10.0 mi East 6.9 mph - N/A   Clear
2:15 AM 44.6 °F 40.7 °F 37.4 °F 76% 30.21 in 10.0 mi East 6.9 mph - N/A   Clear
2:35 AM 44.6 °F 41.4 °F 37.4 °F 76% 30.21 in 10.0 mi East 5.8 mph - N/A   Clear
2:55 AM 42.8 °F 40.1 °F 35.6 °F 76% 30.20 in 10.0 mi ESE 4.6 mph - N/A   Clear
3:15 AM 42.8 °F 39.3 °F 35.6 °F 76% 30.20 in 10.0 mi East 5.8 mph - N/A   Clear
3:35 AM 42.8 °F 38.6 °F 35.6 °F 76% 30.19 in 10.0 mi East 6.9 mph - N/A   Clear
3:55 AM 42.8 °F 39.3 °F 35.6 °F 76% 30.19 in 10.0 mi East 5.8 mph - N/A   Clear
4:15 AM 42.8 °F 40.1 °F 35.6 °F 76% 30.19 in 10.0 mi NE 4.6 mph - N/A   Clear
4:35 AM 42.8 °F 39.3 °F 35.6 °F 76% 30.19 in 10.0 mi NE 5.8 mph - N/A   Clear
4:55 AM 42.8 °F 39.3 °F 35.6 °F 76% 30.19 in 10.0 mi ENE 5.8 mph - N/A   Clear
5:15 AM 42.8 °F 40.1 °F 35.6 °F 76% 30.18 in 10.0 mi NE 4.6 mph - N/A   Clear
5:35 AM 41.0 °F 37.1 °F 35.6 °F 81% 30.19 in 10.0 mi ENE 5.8 mph - N/A   Clear
5:55 AM 42.8 °F 40.1 °F 35.6 °F 76% 30.19 in 10.0 mi NE 4.6 mph - N/A   Clear
6:15 AM 41.0 °F 37.1 °F 35.6 °F 81% 30.19 in 10.0 mi NE 5.8 mph - N/A   Clear
6:35 AM 41.0 °F 38.0 °F 35.6 °F 81% 30.20 in 10.0 mi NE 4.6 mph - N/A   Clear
6:55 AM 41.0 °F 38.0 °F 35.6 °F 81% 30.20 in 10.0 mi ENE 4.6 mph - N/A   Clear
7:15 AM 41.0 °F 39.0 °F 35.6 °F 81% 30.20 in 10.0 mi ENE 3.5 mph - N/A   Clear
7:35 AM 42.8 °F - 37.4 °F 81% 30.21 in 10.0 mi Calm Calm - N/A   Clear
7:55 AM 44.6 °F 43.1 °F 37.4 °F 76% 30.21 in 10.0 mi ESE 3.5 mph - N/A   Scattered Clouds
8:15 AM 44.6 °F 42.2 °F 39.2 °F 81% 30.21 in 10.0 mi SE 4.6 mph - N/A   Mostly Cloudy
8:35 AM 48.2 °F - 39.2 °F 71% 30.22 in 10.0 mi SE 9.2 mph - N/A   Mostly Cloudy
8:55 AM 51.8 °F - 39.2 °F 62% 30.21 in 10.0 mi SSE 11.5 mph - N/A   Partly Cloudy
9:15 AM 51.8 °F - 39.2 °F 62% 30.21 in 10.0 mi SSE 11.5 mph - N/A   Clear
9:35 AM 53.6 °F - 39.2 °F 58% 30.21 in 10.0 mi SE 10.4 mph - N/A   Clear
9:55 AM 53.6 °F - 41.0 °F 62% 30.21 in 10.0 mi SSE 9.2 mph - N/A   Clear
10:35 AM 57.2 °F - 42.8 °F 59% 30.19 in 10.0 mi South 11.5 mph - N/A   Clear
10:55 AM 59.0 °F - 42.8 °F 55% 30.19 in 10.0 mi South 10.4 mph 18.4 mph N/A   Clear
11:15 AM 60.8 °F - 42.8 °F 52% 30.18 in 10.0 mi South 9.2 mph - N/A   Clear
11:35 AM 62.6 °F - 44.6 °F 52% 30.18 in 10.0 mi South 8.1 mph - N/A   Clear
11:55 AM 62.6 °F - 44.6 °F 52% 30.18 in 10.0 mi South 9.2 mph - N/A   Clear
12:35 PM 66.2 °F - 44.6 °F 46% 30.15 in 10.0 mi South 9.2 mph 17.3 mph N/A   Clear
12:55 PM 66.2 °F - 44.6 °F 46% 30.14 in 10.0 mi South 5.8 mph 17.3 mph N/A   Clear
1:15 PM 68.0 °F - 44.6 °F 43% 30.13 in 10.0 mi SSE 11.5 mph - N/A   Clear
1:35 PM 69.8 °F - 44.6 °F 40% 30.11 in 10.0 mi SSE 9.2 mph - N/A   Clear
1:55 PM 71.6 °F - 46.4 °F 41% 30.11 in 10.0 mi SSE 6.9 mph 16.1 mph N/A   Clear
2:15 PM 73.4 °F - 46.4 °F 38% 30.09 in 10.0 mi SE 12.7 mph - N/A   Clear
2:35 PM 73.4 °F - 46.4 °F 38% 30.08 in 10.0 mi South 10.4 mph 18.4 mph N/A   Clear
2:55 PM 73.4 °F - 46.4 °F 38% 30.07 in 10.0 mi South 11.5 mph - N/A   Clear
3:15 PM 75.2 °F - 46.4 °F 36% 30.07 in 10.0 mi SSE 13.8 mph - N/A   Clear
3:35 PM 75.2 °F - 46.4 °F 36% 30.06 in 10.0 mi SE 13.8 mph 18.4 mph N/A   Clear
3:55 PM 75.2 °F - 46.4 °F 36% 30.05 in 10.0 mi SSE 16.1 mph 20.7 mph N/A   Clear
4:15 PM 75.2 °F - 46.4 °F 36% 30.05 in 10.0 mi SE 13.8 mph - N/A   Clear
4:35 PM 75.2 °F - 46.4 °F 36% 30.05 in 10.0 mi SE 12.7 mph 23.0 mph N/A   Clear
4:55 PM 73.4 °F - 46.4 °F 38% 30.05 in 10.0 mi SE 18.4 mph 21.9 mph N/A   Clear
5:15 PM 73.4 °F - 46.4 °F 38% 30.05 in 10.0 mi SE 17.3 mph 23.0 mph N/A   Clear
5:35 PM 71.6 °F - 48.2 °F 43% 30.05 in 10.0 mi ESE 21.9 mph 26.5 mph N/A   Clear
5:55 PM 69.8 °F - 46.4 °F 43% 30.06 in 10.0 mi ESE 20.7 mph 25.3 mph N/A   Clear
6:15 PM 69.8 °F - 46.4 °F 43% 30.07 in 9.0 mi ESE 17.3 mph - N/A   Clear
6:35 PM 66.2 °F - 46.4 °F 49% 30.08 in 10.0 mi ESE 17.3 mph 21.9 mph N/A   Clear
6:55 PM 66.2 °F - 46.4 °F 49% 30.09 in 10.0 mi ESE 17.3 mph - N/A   Clear
7:15 PM 64.4 °F - 48.2 °F 56% 30.10 in 10.0 mi ESE 18.4 mph 23.0 mph N/A   Clear
7:35 PM 60.8 °F - 44.6 °F 55% 30.11 in 10.0 mi East 21.9 mph 27.6 mph N/A   Clear
7:55 PM 59.0 °F - 44.6 °F 59% 30.11 in 10.0 mi East 24.2 mph 29.9 mph N/A   Clear
8:15 PM 57.2 °F - 42.8 °F 59% 30.13 in 10.0 mi East 23.0 mph 28.8 mph N/A   Clear
8:35 PM 55.4 °F - 42.8 °F 63% 30.14 in 10.0 mi East 24.2 mph 28.8 mph N/A   Clear
8:55 PM 55.4 °F - 42.8 °F 63% 30.14 in 10.0 mi East 23.0 mph 27.6 mph N/A   Clear
9:35 PM 53.6 °F - 42.8 °F 67% 30.16 in 10.0 mi East 21.9 mph 28.8 mph N/A   Scattered Clouds
9:55 PM 53.6 °F - 42.8 °F 67% 30.17 in 10.0 mi East 21.9 mph 25.3 mph N/A   Overcast
10:15 PM 53.6 °F - 42.8 °F 67% 30.18 in 10.0 mi East 23.0 mph 27.6 mph N/A   Overcast
10:35 PM 53.6 °F - 41.0 °F 62% 30.18 in 10.0 mi East 21.9 mph 28.8 mph N/A   Overcast
10:55 PM 51.8 °F - 39.2 °F 62% 30.19 in 10.0 mi East 24.2 mph 28.8 mph N/A   Overcast
11:15 PM 51.8 °F - 39.2 °F 62% 30.20 in 10.0 mi East 23.0 mph - N/A   Overcast
11:35 PM 50.0 °F - 39.2 °F 66% 30.20 in 10.0 mi East 23.0 mph - N/A   Overcast
11:55 PM 50.0 °F - 37.4 °F 62% 30.21 in 10.0 mi East 19.6 mph 25.3 mph N/A   Overcast